Location: Newark
(41.0400°S, 62.7845°W)
Time: 17:46:40
(UTC+00:00)

PCSat - Visible Passes

Search period start: 22 January 2022 00:00
Search period end: 01 February 2022 00:00
Orbit: 784 x 794 km, 67.1° (Epoch: 21 January)

Date Brightness Start Highest point End Pass type
(mag) Time Alt. Az. Time Alt. Az. Time Alt. Az.
22 Jan 12.1 01:20:52 10° WSW 01:23:13 13° WNW 01:25:34 10° NW visible
23 Jan 11.9 00:48:42 10° WSW 00:52:22 19° WNW 00:56:01 10° NNW visible
24 Jan 11.5 00:17:03 10° SW 00:21:28 26° WNW 00:25:53 10° NNW visible
